Location: Grossmotten
(48.5500°N, 15.3833°E)
Time: 06:09:29
(UTC+00:00)

ATLAS 2AS CENTAUR R/B - Pass Details

Date: 15 November 2019
Orbit: 926 x 1286 km, 63.7° (Epoch: 09 December)

Event Time Altitude Azimuth Distance (km) Brightness Sun altitude
Exits shadow 04:58:03 - 316° (NW) 3,374 4.8 -11.3°
Reaches altitude 10° 04:58:33 10° 315° (NW) 3,201 4.7 -11.2°
Maximum altitude 05:06:07 62° 238° (WSW) 1,293 3.0 -10.0°
Drops below altitude 10° 05:13:02 10° 159° (SSE) 2,937 5.6 -8.9°
Sets 05:15:36 0° 156° (SSE) 3,839 6.3 -8.5°
